Change the Weather History Date:

Tuesday, October 25, 2011

  Actual Average Record
Temperature  
Mean Temperature 62 °F -  
Max Temperature 64 °F 67 °F 79 °F (1997)
Min Temperature 59 °F 50 °F 45 °F (2008)
Degree Days  
Heating Degree Days 4    
Growing Degree Days 12 (Base 50)    
Moisture  
Dew Point 57 °F    
Average Humidity 86    
Maximum Humidity 94    
Minimum Humidity 76    
Precipitation  
Precipitation 0.00 in - - ()
Sea Level Pressure  
Sea Level Pressure 30.06 in    
Wind  
Wind Speed 1 mph (WSW)    
Max Wind Speed 7 mph    
Max Gust Speed -    
Visibility 4 miles    
Events      
Averages and records for this station are not official NWS values.
T = Trace of Precipitation, MM = Missing Value Source: NWS Daily Summary

Daily Weather History Graph

Daily Weather History Graph

Search for Another Location

Airport or City:

Trip Planner

Search our weather history database for the weather conditions in past years. The results will help you decide how hot, cold, wet, or windy it might be!

Date:

Astronomy

Oct. 25, 2011 Rise Set
Actual Time 7:09 AM PDT 6:10 PM PDT
Civil Twilight 6:44 AM PDT 6:36 PM PDT
Nautical Twilight 6:14 AM PDT 7:05 PM PDT
Astronomical Twilight 5:45 AM PDT 7:34 PM PDT
Moon 5:49 AM PDT (10/25) 5:15 PM PDT (10/25)
Length of Visible Light 11h 52m
Length of Day
11h 00m
Waning Crescent, 2% of the Moon is Illuminated
Oct 25
Waning Crescent
Oct 26
New
Nov 2
First Quarter
Nov 10
Full
Nov 18
Last Quarter

Hourly Weather History & Observations

Time (PDT) Temp. Dew Point Humidity Pressure Visibility Wind Dir Wind Speed Gust Speed Precip Events Conditions
12:54 AM 61.0 °F - N/A% 30.07 in 8.0 mi Calm Calm - N/A   Overcast
1:54 AM 61.0 °F - N/A% 30.07 in 8.0 mi Calm Calm - N/A   Overcast
2:54 AM 60.1 °F - N/A% 30.07 in 7.0 mi Calm Calm - N/A   Overcast
3:54 AM 60.1 °F - N/A% 30.06 in 7.0 mi Calm Calm - N/A   Overcast
4:54 AM 60.1 °F - N/A% 30.06 in 6.0 mi Calm Calm - N/A   Haze
5:54 AM 60.6 °F 56.5 °F 86% 30.06 in 4.0 mi Calm Calm - N/A   Overcast
6:01 AM 59.0 °F 57.2 °F 94% 30.05 in 5.0 mi SSE 3.5 mph - N/A   Overcast
6:54 AM 60.4 °F 56.8 °F 88% 30.07 in 4.0 mi Calm Calm - N/A   Overcast
6:59 AM 60.8 °F 57.2 °F 88% 30.06 in 5.0 mi Calm Calm - N/A   Overcast
7:09 AM 60.8 °F 57.2 °F 88% 30.07 in 2.5 mi Calm Calm - N/A   Overcast
7:17 AM 60.8 °F 57.2 °F 88% 30.07 in 2.5 mi Calm Calm - N/A   Overcast
7:32 AM 60.8 °F 57.2 °F 88% 30.07 in 2.5 mi Calm Calm - N/A   Overcast
7:54 AM 60.4 °F 56.8 °F 88% 30.08 in 2.5 mi Calm Calm - N/A   Overcast
8:11 AM 60.8 °F 57.2 °F 88% 30.08 in 2.5 mi Calm Calm - N/A   Overcast
8:54 AM 61.3 °F 57.7 °F 88% 30.09 in 2.5 mi Calm Calm - N/A   Overcast
9:45 AM 62.6 °F 57.2 °F 82% 30.09 in 2.5 mi Calm Calm - N/A   Overcast
9:54 AM 62.1 °F 57.7 °F 86% 30.10 in 3.0 mi Calm Calm - N/A   Overcast
10:01 AM 62.6 °F 57.2 °F 82% 30.10 in 3.0 mi Calm Calm - N/A   Overcast
10:54 AM 63.0 °F 57.6 °F 82% 30.10 in 3.0 mi Calm Calm - N/A   Haze
11:01 AM 62.6 °F 57.2 °F 82% 30.09 in 3.0 mi Calm Calm - N/A   Haze
11:54 AM 63.1 °F 57.7 °F 83% 30.09 in 5.0 mi SW 5.8 mph - N/A   Haze
12:54 PM 63.5 °F 58.1 °F 83% 30.08 in 5.0 mi SSW 6.9 mph - N/A   Haze
1:54 PM 64.2 °F 58.3 °F 81% 30.05 in 5.0 mi SSW 6.9 mph - N/A   Haze
2:54 PM 63.0 °F 56.5 °F 79% 30.03 in 5.0 mi WSW 4.6 mph - N/A   Haze
3:54 PM 63.0 °F 55.2 °F 76% 30.03 in 5.0 mi WSW 6.9 mph - N/A   Haze
4:54 PM 62.1 °F 58.1 °F 87% 30.02 in 5.0 mi WSW 4.6 mph - N/A   Overcast
5:54 PM 62.1 °F 57.9 °F 86% 30.01 in 5.0 mi SW 4.6 mph - N/A   Overcast
6:54 PM 61.0 °F 58.3 °F 91% 30.01 in 5.0 mi West 3.5 mph - N/A   Overcast
7:54 PM 61.0 °F 58.5 °F 91% 30.02 in 5.0 mi West 4.6 mph - N/A   Overcast
8:54 PM 61.0 °F 57.0 °F 87% 30.02 in 5.0 mi Calm Calm - N/A   Overcast
9:54 PM 61.0 °F 56.5 °F 85% 30.03 in 5.0 mi WNW 3.5 mph - N/A   Haze
10:19 PM 60.8 °F 57.2 °F 88% 30.03 in 5.0 mi WNW 3.5 mph - N/A   Overcast
10:54 PM 61.0 °F 56.5 °F 85% 30.04 in 5.0 mi WNW 5.8 mph - N/A   Overcast
11:54 PM 59.0 °F - N/A% 30.03 in 5.0 mi West 6.9 mph - N/A   Overcast